一网星座-0305星 (ONEWEB-0305 )

导读 | 星芒AI

ONEWE-0305 是 OneWeb 卫星通信星座计划中的一颗低轨通信卫星,旨在为全球提供高速互联网接入。该卫星由空中客车防务与航天公司制造,采用标准化设计以提高部署效率。它运行在约 1200 公里的近地轨道,支持宽带通信服务,主要面向航空、海运及偏远地区用户。ONEWE-0305 的发射进一步完善了 OneWeb 的全球卫星网络,增强其在低轨通信市场的竞争力。

基本信息
目录编号:
49093
目录名称:
ONEWEB-0305
国际标识:
2021-075U
轨道中心:
EARTH
卫星名称:
一网星座-0305星
卫星全名:
一网星座-0305星 (ONEWEB-0305 )
卫星状态:
在轨 (已飞行1577 天)
发射日期:
2021-08-21 UTC
国别 :
英国 (GB)
星等 :
--
轨道信息
数据来源 国际轨道数据 AOE轨道数据
星历时间 2025-12-15T01:06:11+0800
1天前
查看轨道信息
2025-12-14T05:00:00+0800
1天前
查看轨道信息
半长轴 7571.859km 7571.855km
偏心率 0.0001615 0.0001681
轨道倾角 87.912° 87.914°
近地点辐角 113.693° 127.543°
升交点赤经 42.523° 42.687°
平近点角 246.437° 221.551°
近地点 1192.501km 1192.447km
远地点 1194.947km 1194.993km
周期 109.286分钟 109.286分钟
每日圈数 13.176468 13.17648
详细信息
平衡模式:
三轴稳定
覆盖范围:
全球
运营商:
一网卫星公司
运营商所在国:
英国
制造商(研发单位):
一网卫星公司
制造商所在国:
英国
使用方式:
暂无
卫星简介
OneWeb卫星网络由648颗重约125公斤的微型卫星组成,运行在1200公里的轨道上。 每颗卫星都能够提供至少每秒8千兆位的吞吐量,以使用其高吞吐量的Ku频段有效载荷为家庭和移动平台提供互联网接入。该卫星仍在工作。
2D轨道图
3D轨道图
轨道高度分析图
轨道倾角分析图
轨道综合分析图
查看轨道综合分析图